Check out our new BloomSky Weather System.

Active alerts

Houston, TX
  Details for Houston, TX Areal Flood Advisory


Thunder radar  blitzortung!


Rain radar more information rain snow radar


Visit our other weather sites:

Template documentation
and downloads

And another site



Weather Underground History page Text

Daily Summary for January 13, 2017 Units:  Metric    English   Both
« Previous Day
Next Day »
Daily Weekly Monthly Yearly Custom
  High: Low: Average:
Temperature: -17.8 °C 20 °C 21.7 °C
Dew Point: -17.8 °C 19.2 °C 20 °C
Humidity: Humidity % 69 % 90 %
Wind Speed: 0 km/h 0 km/h 5.3 km/h
Wind Gust: 0 km/h - -
Wind:- - SE
Pressure: 0 hPa 1022.2 hPa -
Precipitation: 2.79 mm    
Historical Graphs
 
 
Tabular Data for January 13, 2017
Time Temperature Dew Point Pressure Wind Wind Speed Wind Gust Humidity Rainfall Rate (Hourly)
-17.8 °C -17.8 °C 0 hPa Calm     Humidity % 0 mm
00:02 20.9 °C 20.2 °C 1022.2 hPa SSE 6.4 km/h 12.9 km/h 96 % 0 mm
00:07 20.9 °C 20.2 °C 1022.2 hPa SE 11.3 km/h 12.9 km/h 96 % 0 mm
00:12 20.9 °C 20.2 °C 1022.2 hPa SSE 6.4 km/h 12.9 km/h 96 % 0 mm
00:17 20.9 °C 20.2 °C 1022.2 hPa SE 3.2 km/h 11.3 km/h 96 % 0 mm
00:22 20.9 °C 20.2 °C 1022.2 hPa SE 4.8 km/h 11.3 km/h 96 % 0 mm
00:27 20.9 °C 20.2 °C 1022.2 hPa SE 4.8 km/h 11.3 km/h 96 % 0 mm
00:32 20.9 °C 20.4 °C 1022.2 hPa ESE 8 km/h 16.1 km/h 97 % 0 mm
00:37 20.9 °C 20.4 °C 1022.2 hPa South 4.8 km/h 16.1 km/h 97 % 0 mm
00:42 20.9 °C 20.4 °C 1022.2 hPa SE 12.9 km/h 16.1 km/h 97 % 0 mm
00:47 20.9 °C 20.4 °C 1022.2 hPa SE 8 km/h 14.5 km/h 97 % 0 mm
00:52 20.9 °C 20.4 °C 1022.2 hPa SE 6.4 km/h 14.5 km/h 97 % 0 mm
00:57 20.9 °C 20.4 °C 1022.2 hPa ESE 1.6 km/h 14.5 km/h 97 % 0 mm
01:02 20.9 °C 20.4 °C 1022.2 hPa South 3.2 km/h 12.9 km/h 97 % 0 mm
01:07 21 °C 20.5 °C 1022.2 hPa ESE 8 km/h 12.9 km/h 97 % 0 mm
01:12 21 °C 20.5 °C 1022.2 hPa SE 6.4 km/h 12.9 km/h 97 % 0 mm
01:17 21 °C 20.5 °C 1022.2 hPa South 3.2 km/h 14.5 km/h 97 % 0 mm
01:22 21.1 °C 20.6 °C 1022.2 hPa ESE 8 km/h 14.5 km/h 97 % 0 mm
01:27 21.1 °C 20.6 °C 1022.6 hPa South 4.8 km/h 14.5 km/h 97 % 0 mm
01:32 21.1 °C 20.6 °C 1022.6 hPa SE 4.8 km/h 12.9 km/h 97 % 0 mm
01:37 21.1 °C 20.6 °C 1022.6 hPa SE 6.4 km/h 12.9 km/h 97 % 0 mm
01:42 21.2 °C 20.7 °C 1022.6 hPa East 4.8 km/h 19.3 km/h 97 % 0 mm
01:48 21.2 °C 20.7 °C 1022.6 hPa SE 6.4 km/h 19.3 km/h 97 % 0 mm
01:53 21.2 °C 20.7 °C 1022.6 hPa SE 6.4 km/h 19.3 km/h 97 % 0 mm
01:58 21.2 °C 20.5 °C 1022.6 hPa ESE 8 km/h 14.5 km/h 96 % 0 mm
02:03 21.3 °C 20.6 °C 1022.6 hPa SE 8 km/h 14.5 km/h 96 % 0 mm
02:08 21.3 °C 20.6 °C 1022.6 hPa SE 3.2 km/h 17.7 km/h 96 % 0 mm
02:13 21.3 °C 20.6 °C 1022.6 hPa SE 8 km/h 17.7 km/h 96 % 0 mm
02:18 21.3 °C 20.6 °C 1022.6 hPa ESE 4.8 km/h 17.7 km/h 96 % 0 mm
02:23 21.3 °C 20.6 °C 1022.9 hPa SSE 3.2 km/h 12.9 km/h 96 % 0 mm
02:28 21.3 °C 20.6 °C 1022.6 hPa SE 3.2 km/h 12.9 km/h 96 % 0 mm
02:33 21.3 °C 20.6 °C 1022.6 hPa East 3.2 km/h 11.3 km/h 96 % 0 mm
02:38 21.2 °C 20.5 °C 1022.9 hPa ESE 3.2 km/h 11.3 km/h 96 % 0 mm
02:43 21.2 °C 20.5 °C 1022.9 hPa ESE 1.6 km/h 9.7 km/h 96 % 0.25 mm
02:48 21.2 °C 20.5 °C 1022.6 hPa SE 1.6 km/h 9.7 km/h 96 % 0.25 mm
02:53 21.1 °C 20.6 °C 1022.9 hPa ENE 3.2 km/h 9.7 km/h 97 % 0.25 mm
02:58 21.1 °C 20.6 °C 1022.9 hPa East 1.6 km/h 6.4 km/h 97 % 0.25 mm
03:03 21.1 °C 20.6 °C 1022.9 hPa Calm   6.4 km/h 97 % 0.25 mm
03:08 21.1 °C 20.6 °C 1022.9 hPa ESE 3.2 km/h 4.8 km/h 97 % 0.25 mm
03:13 21.1 °C 20.6 °C 1022.9 hPa ESE 3.2 km/h 4.8 km/h 97 % 0.25 mm
03:18 21.1 °C 20.6 °C 1022.9 hPa Calm   4.8 km/h 97 % 0.25 mm
03:23 21.1 °C 20.6 °C 1022.9 hPa Calm   4.8 km/h 97 % 0.25 mm
03:28 21.1 °C 20.6 °C 1022.9 hPa ESE 1.6 km/h 4.8 km/h 97 % 0.25 mm
03:33 21.1 °C 20.6 °C 1022.9 hPa ESE 3.2 km/h 4.8 km/h 97 % 0.25 mm
03:38 21.1 °C 20.6 °C 1022.9 hPa Calm   4.8 km/h 97 % 0.25 mm
03:43 21 °C 20.5 °C 1022.9 hPa Calm   4.8 km/h 97 % 0 mm
03:48 21 °C 20.5 °C 1022.9 hPa SE 1.6 km/h 3.2 km/h 97 % 0 mm
03:53 21 °C 20.5 °C 1022.9 hPa Calm   1.6 km/h 97 % 0 mm
03:58 20.9 °C 20.4 °C 1022.9 hPa SE 1.6 km/h 1.6 km/h 97 % 0 mm
04:03 20.9 °C 20.4 °C 1022.9 hPa Calm   1.6 km/h 97 % 0 mm
04:08 20.9 °C 20.4 °C 1022.9 hPa Calm   1.6 km/h 97 % 0 mm
04:13 20.9 °C 20.4 °C 1022.9 hPa Calm   1.6 km/h 97 % 0 mm
04:18 20.9 °C 20.4 °C 1022.9 hPa Calm   1.6 km/h 97 % 0 mm
04:23 20.9 °C 20.4 °C 1022.9 hPa Calm   1.6 km/h 97 % 0 mm
04:28 21 °C 20.5 °C 1022.9 hPa East 1.6 km/h 3.2 km/h 97 % 0 mm
04:33 21 °C 20.5 °C 1023.2 hPa ESE 1.6 km/h 3.2 km/h 97 % 0 mm
04:38 20.9 °C 20.4 °C 1023.2 hPa ENE 1.6 km/h 3.2 km/h 97 % 0 mm
04:43 20.9 °C 20.4 °C 1022.9 hPa Calm   3.2 km/h 97 % 0 mm
04:48 20.9 °C 20.4 °C 1022.9 hPa Calm   4.8 km/h 97 % 0 mm
04:53 20.9 °C 20.4 °C 1022.9 hPa Calm   4.8 km/h 97 % 0 mm
04:58 20.9 °C 20.4 °C 1023.2 hPa Calm   4.8 km/h 97 % 0 mm
05:03 20.8 °C 20.3 °C 1022.9 hPa ESE 1.6 km/h 4.8 km/h 97 % 0 mm
05:08 20.8 °C 20.3 °C 1023.2 hPa Calm   3.2 km/h 97 % 0 mm
05:13 20.8 °C 20.5 °C 1023.2 hPa Calm   3.2 km/h 98 % 0 mm
05:18 20.7 °C 20.4 °C 1023.2 hPa Calm   3.2 km/h 98 % 0 mm
05:23 20.7 °C 20.4 °C 1023.2 hPa East 1.6 km/h 1.6 km/h 98 % 0 mm
05:28 20.7 °C 20.4 °C 1023.2 hPa Calm   4.8 km/h 98 % 0 mm
05:33 20.7 °C 20.4 °C 1023.2 hPa SE 1.6 km/h 4.8 km/h 98 % 1.78 mm
05:38 20.7 °C 20.4 °C 1023.2 hPa SE 3.2 km/h 4.8 km/h 98 % 2.03 mm
05:43 20.8 °C 20.5 °C 1023.6 hPa SE 1.6 km/h 6.4 km/h 98 % 2.03 mm
05:48 20.7 °C 20.4 °C 1023.6 hPa SE 1.6 km/h 6.4 km/h 98 % 2.03 mm
05:53 20.8 °C 20.5 °C 1023.6 hPa East 3.2 km/h 6.4 km/h 98 % 2.03 mm
05:59 20.7 °C 20.4 °C 1023.6 hPa East 3.2 km/h 6.4 km/h 98 % 2.03 mm
06:04 20.8 °C 20.5 °C 1023.6 hPa ESE 3.2 km/h 6.4 km/h 98 % 2.03 mm
06:09 20.7 °C 20.4 °C 1023.9 hPa ESE 1.6 km/h 6.4 km/h 98 % 2.03 mm
06:14 20.7 °C 20.4 °C 1023.9 hPa Calm   6.4 km/h 98 % 2.03 mm
06:19 20.7 °C 20.4 °C 1023.9 hPa SSE 3.2 km/h 6.4 km/h 98 % 2.03 mm
06:24 20.7 °C 20.4 °C 1023.9 hPa SE 1.6 km/h 4.8 km/h 98 % 2.03 mm
06:29 20.7 °C 20.4 °C 1023.9 hPa ESE 3.2 km/h 4.8 km/h 98 % 2.03 mm
06:34 20.7 °C 20.4 °C 1023.9 hPa ESE 3.2 km/h 4.8 km/h 98 % 0.25 mm
06:39 20.7 °C 20.4 °C 1024.3 hPa SE 1.6 km/h 4.8 km/h 98 % 0 mm
06:44 20.6 °C 20.3 °C 1024.3 hPa Calm   4.8 km/h 98 % 0 mm
06:49 20.6 °C 20.3 °C 1024.3 hPa Calm   3.2 km/h 98 % 0 mm
06:54 20.6 °C 20.3 °C 1024.3 hPa ESE 1.6 km/h 3.2 km/h 98 % 0 mm
06:59 20.5 °C 20.2 °C 1024.3 hPa Calm   3.2 km/h 98 % 0 mm
07:04 20.5 °C 20.2 °C 1024.3 hPa East 1.6 km/h 3.2 km/h 98 % 0 mm
07:09 20.4 °C 20.1 °C 1024.3 hPa Calm   3.2 km/h 98 % 0 mm
07:14 20.4 °C 20.1 °C 1024.3 hPa ESE 1.6 km/h 4.8 km/h 98 % 0 mm
07:19 20.4 °C 20.1 °C 1024.3 hPa Calm   4.8 km/h 98 % 0 mm
07:24 20.3 °C 20 °C 1024.6 hPa Calm   4.8 km/h 98 % 0 mm
07:29 20.4 °C 20.1 °C 1024.6 hPa Calm   3.2 km/h 98 % 0 mm
07:34 20.3 °C 20 °C 1024.6 hPa Calm   3.2 km/h 98 % 0 mm
07:39 20.3 °C 20 °C 1024.6 hPa Calm   4.8 km/h 98 % 0 mm
07:44 20.2 °C 19.9 °C 1024.9 hPa East 1.6 km/h 4.8 km/h 98 % 0 mm
07:49 20.2 °C 19.9 °C 1024.9 hPa ESE 1.6 km/h 4.8 km/h 98 % 0 mm
07:54 20.2 °C 19.9 °C 1024.9 hPa ESE 1.6 km/h 3.2 km/h 98 % 0 mm
07:59 20.1 °C 19.8 °C 1025.3 hPa ESE 1.6 km/h 4.8 km/h 98 % 0 mm
08:04 20.1 °C 19.8 °C 1024.9 hPa ESE 1.6 km/h 4.8 km/h 98 % 0 mm
08:09 20 °C 19.7 °C 1025.3 hPa SSE 1.6 km/h 8 km/h 98 % 0 mm
08:14 20.1 °C 19.8 °C 1025.3 hPa SSE 4.8 km/h 9.7 km/h 98 % 0 mm
08:19 20.1 °C 19.8 °C 1025.3 hPa East 3.2 km/h 12.9 km/h 98 % 0 mm
08:24 20.2 °C 19.9 °C 1025.6 hPa SE 6.4 km/h 12.9 km/h 98 % 0 mm
08:29 20.2 °C 19.9 °C 1025.6 hPa SSE 6.4 km/h 12.9 km/h 98 % 0 mm
08:34 20.3 °C 20 °C 1025.6 hPa SE 6.4 km/h 11.3 km/h 98 % 0 mm
08:39 20.3 °C 20 °C 1026 hPa ESE 9.7 km/h 12.9 km/h 98 % 0 mm
08:44 20.4 °C 20.1 °C 1026 hPa East 11.3 km/h 17.7 km/h 98 % 0 mm
08:49 20.4 °C 20.1 °C 1026 hPa ESE 6.4 km/h 17.7 km/h 98 % 0 mm
08:54 20.5 °C 20.2 °C 1026 hPa SE 14.5 km/h 17.7 km/h 98 % 0 mm
08:59 20.5 °C 20.2 °C 1026 hPa SSE 9.7 km/h 14.5 km/h 98 % 0 mm
09:00 20.5 °C 20.2 °C 1026 hPa South 1.6 km/h 17.7 km/h 98 % 0 mm
09:05 20.6 °C 20.3 °C 1026.3 hPa ESE 9.7 km/h 17.7 km/h 98 % 0 mm
09:10 20.6 °C 20.3 °C 1026.3 hPa ESE 6.4 km/h 17.7 km/h 98 % 0 mm
09:15 20.6 °C 20.3 °C 1026.3 hPa SE 4.8 km/h 16.1 km/h 98 % 0 mm
09:20 20.6 °C 20.3 °C 1026.3 hPa SE 9.7 km/h 16.1 km/h 98 % 0 mm
09:25 20.7 °C 20.4 °C 1026.6 hPa SSE 14.5 km/h 16.1 km/h 98 % 0 mm
09:30 20.7 °C 20.4 °C 1026.6 hPa SE 6.4 km/h 16.1 km/h 98 % 0 mm
09:35 20.7 °C 20.4 °C 1026.6 hPa SE 12.9 km/h 16.1 km/h 98 % 0 mm
09:40 20.7 °C 20.4 °C 1026.6 hPa SE 9.7 km/h 17.7 km/h 98 % 0 mm
09:45 20.8 °C 20.5 °C 1026.6 hPa ENE 9.7 km/h 17.7 km/h 98 % 0 mm
09:50 20.8 °C 20.5 °C 1027 hPa SE 4.8 km/h 17.7 km/h 98 % 0 mm
09:55 20.8 °C 20.5 °C 1027 hPa SE 3.2 km/h 16.1 km/h 98 % 0 mm
10:00 20.9 °C 20.6 °C 1027 hPa SE 11.3 km/h 17.7 km/h 98 % 0 mm
10:05 20.9 °C 20.6 °C 1027 hPa ESE 8 km/h 17.7 km/h 98 % 0 mm
10:10 20.9 °C 20.4 °C 1027.3 hPa SE 3.2 km/h 17.7 km/h 97 % 0 mm
10:15 20.9 °C 20.4 °C 1027.3 hPa SE 11.3 km/h 16.1 km/h 97 % 0 mm
10:20 20.9 °C 20.4 °C 1027.3 hPa South 4.8 km/h 17.7 km/h 97 % 0 mm
10:25 21 °C 20.5 °C 1027.3 hPa SE 4.8 km/h 17.7 km/h 97 % 0 mm
10:30 21.1 °C 20.6 °C 1027.3 hPa East 8 km/h 17.7 km/h 97 % 0 mm
10:35 21.1 °C 20.6 °C 1027.3 hPa SSE 6.4 km/h 16.1 km/h 97 % 0 mm
10:40 21.2 °C 20.5 °C 1027.3 hPa SSE 8 km/h 12.9 km/h 96 % 0 mm
10:45 21.3 °C 20.6 °C 1027.3 hPa ESE 9.7 km/h 17.7 km/h 96 % 0 mm
10:50 21.4 °C 20.7 °C 1027 hPa ESE 9.7 km/h 17.7 km/h 96 % 0 mm
10:55 21.4 °C 20.6 °C 1027.3 hPa SE 14.5 km/h 17.7 km/h 95 % 0 mm
11:00 21.4 °C 20.6 °C 1027.3 hPa ESE 9.7 km/h 20.9 km/h 95 % 0 mm
11:05 21.6 °C 20.8 °C 1027 hPa SE 12.9 km/h 20.9 km/h 95 % 0 mm
11:10 21.7 °C 20.7 °C 1027 hPa East 12.9 km/h 20.9 km/h 94 % 0 mm
11:15 22 °C 21 °C 1027 hPa East 6.4 km/h 19.3 km/h 94 % 0 mm
11:21 22.3 °C 21.1 °C 1027 hPa ESE 9.7 km/h 19.3 km/h 93 % 0 mm
11:26 22.7 °C 21 °C 1026.6 hPa East 8 km/h 19.3 km/h 90 % 0 mm
11:31 22.8 °C 21.1 °C 1026.6 hPa ESE 16.1 km/h 19.3 km/h 90 % 0 mm
11:36 23.1 °C 21 °C 1026.6 hPa SSE 6.4 km/h 19.3 km/h 88 % 0 mm
11:41 23.2 °C 20.9 °C 1026.6 hPa SE 9.7 km/h 19.3 km/h 87 % 0 mm
11:46 23.4 °C 20.9 °C 1026.6 hPa ESE 8 km/h 19.3 km/h 86 % 0 mm
11:51 23.4 °C 20.5 °C 1026.6 hPa ESE 4.8 km/h 19.3 km/h 84 % 0 mm
11:56 23.4 °C 20.5 °C 1026.3 hPa East 4.8 km/h 16.1 km/h 84 % 0 mm
12:01 23.4 °C 20.7 °C 1026.3 hPa SSE 8 km/h 20.9 km/h 85 % 0 mm
12:06 23.7 °C 21 °C 1026.3 hPa SSE 4.8 km/h 20.9 km/h 85 % 0 mm
12:11 24 °C 20.5 °C 1026.3 hPa SE 6.4 km/h 20.9 km/h 81 % 0 mm
12:16 24.1 °C 20.4 °C 1026 hPa ESE 12.9 km/h 17.7 km/h 80 % 0 mm
12:21 23.9 °C 20.4 °C 1026 hPa SE 8 km/h 17.7 km/h 81 % 0 mm
12:26 23.9 °C 20.2 °C 1026 hPa ESE 9.7 km/h 17.7 km/h 80 % 0 mm
12:31 23.7 °C 20.2 °C 1026 hPa SE 8 km/h 17.7 km/h 81 % 0 mm
12:36 23.8 °C 20.3 °C 1026 hPa SE 9.7 km/h 17.7 km/h 81 % 0 mm
12:41 23.9 °C 20.4 °C 1025.6 hPa SSE 11.3 km/h 17.7 km/h 81 % 0 mm
12:46 24.3 °C 20.6 °C 1026 hPa SSE 8 km/h 17.7 km/h 80 % 0 mm
12:51 24.2 °C 20.3 °C 1026 hPa ESE 9.7 km/h 17.7 km/h 79 % 0 mm
12:56 24.2 °C 20.3 °C 1025.6 hPa SE 8 km/h 16.1 km/h 79 % 0 mm
13:01 24.2 °C 20.1 °C 1025.6 hPa ESE 14.5 km/h 16.1 km/h 78 % 0 mm
13:06 24.4 °C 20.7 °C 1025.6 hPa SE 6.4 km/h 17.7 km/h 80 % 0 mm
13:11 24.5 °C 20.2 °C 1025.6 hPa SSE 4.8 km/h 17.7 km/h 77 % 0 mm
13:16 24.6 °C 20.3 °C 1025.3 hPa ESE 12.9 km/h 17.7 km/h 77 % 0 mm
13:21 24.5 °C 20.2 °C 1025.3 hPa ESE 8 km/h 16.1 km/h 77 % 0 mm
13:26 24.5 °C 20 °C 1025.3 hPa SE 3.2 km/h 17.7 km/h 76 % 0 mm
13:31 24.7 °C 20 °C 1025.3 hPa East 12.9 km/h 19.3 km/h 75 % 0 mm
13:36 24.7 °C 20 °C 1025.3 hPa East 11.3 km/h 19.3 km/h 75 % 0 mm
13:41 24.6 °C 20.1 °C 1025.3 hPa ESE 12.9 km/h 19.3 km/h 76 % 0 mm
13:46 24.7 °C 19.8 °C 1025.3 hPa ESE 9.7 km/h 19.3 km/h 74 % 0 mm
13:51 24.8 °C 19.6 °C 1025.3 hPa ENE 4.8 km/h 19.3 km/h 73 % 0 mm
13:56 24.9 °C 19.7 °C 1025.3 hPa SSW 4.8 km/h 19.3 km/h 73 % 0 mm
14:01 24.8 °C 19.6 °C 1024.9 hPa SE 11.3 km/h 17.7 km/h 73 % 0 mm
14:06 24.8 °C 19.8 °C 1024.9 hPa SE 6.4 km/h 19.3 km/h 74 % 0 mm
14:11 25.1 °C 19.7 °C 1024.9 hPa East 4.8 km/h 19.3 km/h 72 % 0 mm
14:16 25.2 °C 19.8 °C 1024.9 hPa SE 8 km/h 19.3 km/h 72 % 0 mm
14:21 25.3 °C 19.7 °C 1025.3 hPa SE 9.7 km/h 19.3 km/h 71 % 0 mm
14:26 25.2 °C 19.8 °C 1024.9 hPa East 8 km/h 19.3 km/h 72 % 0 mm
14:31 25.2 °C 19.8 °C 1024.9 hPa SSE 4.8 km/h 17.7 km/h 72 % 0 mm
14:36 25 °C 19.4 °C 1024.9 hPa ESE 20.9 km/h 24.1 km/h 71 % 0 mm
14:41 24.9 °C 19.5 °C 1025.3 hPa SE 9.7 km/h 24.1 km/h 72 % 0 mm
14:46 25.1 °C 19.9 °C 1025.3 hPa ESE 12.9 km/h 24.1 km/h 73 % 0 mm
14:51 25.3 °C 19.7 °C 1025.3 hPa ENE 4.8 km/h 22.5 km/h 71 % 0 mm
14:56 25.4 °C 19.8 °C 1025.3 hPa East 4.8 km/h 17.7 km/h 71 % 0 mm
15:01 25.6 °C 19.7 °C 1025.3 hPa SE 9.7 km/h 17.7 km/h 70 % 0 mm
15:06 25.4 °C 19.3 °C 1025.3 hPa East 14.5 km/h 19.3 km/h 69 % 0 mm
15:11 25.3 °C 19.4 °C 1025.3 hPa SSW 9.7 km/h 20.9 km/h 70 % 0 mm
15:16 25.2 °C 19.3 °C 1025.3 hPa SE 9.7 km/h 20.9 km/h 70 % 0 mm
15:21 25 °C 19.4 °C 1025.3 hPa ESE 3.2 km/h 20.9 km/h 71 % 0 mm
15:26 25.1 °C 19.5 °C 1025.3 hPa SE 12.9 km/h 19.3 km/h 71 % 0 mm
15:31 25.1 °C 19.5 °C 1025.3 hPa SSE 11.3 km/h 17.7 km/h 71 % 0 mm
15:37 25.2 °C 19.3 °C 1025.3 hPa SE 4.8 km/h 17.7 km/h 70 % 0 mm
15:42 25.1 °C 19.2 °C 1025.3 hPa SE 8 km/h 17.7 km/h 70 % 0 mm
15:47 25 °C 19.4 °C 1025.3 hPa East 6.4 km/h 22.5 km/h 71 % 0 mm
15:52 25.1 °C 19.7 °C 1025.3 hPa SSE 3.2 km/h 22.5 km/h 72 % 0 mm
15:57 25.2 °C 19.3 °C 1025.6 hPa ESE 6.4 km/h 22.5 km/h 70 % 0 mm
16:02 25.3 °C 19.4 °C 1025.6 hPa SSE 9.7 km/h 17.7 km/h 70 % 0 mm
16:07 25.2 °C 19.6 °C 1025.6 hPa ESE 14.5 km/h 16.1 km/h 71 % 0 mm
16:12 25.1 °C 19.5 °C 1025.6 hPa SSE 8 km/h 16.1 km/h 71 % 0 mm
16:17 24.9 °C 19.5 °C 1025.6 hPa SSE 11.3 km/h 17.7 km/h 72 % 0 mm
16:22 24.6 °C 19.4 °C 1025.6 hPa ESE 11.3 km/h 17.7 km/h 73 % 0 mm
16:27 24.3 °C 19.6 °C 1025.6 hPa SE 11.3 km/h 17.7 km/h 75 % 0 mm
16:32 24.1 °C 19.6 °C 1025.6 hPa ESE 11.3 km/h 16.1 km/h 76 % 0 mm
16:37 24.1 °C 19.8 °C 1025.6 hPa ESE 6.4 km/h 17.7 km/h 77 % 0 mm
16:42 24.1 °C 19.8 °C 1026 hPa SE 4.8 km/h 17.7 km/h 77 % 0 mm
16:47 24 °C 19.7 °C 1025.6 hPa SSE 6.4 km/h 17.7 km/h 77 % 0 mm
16:52 23.8 °C 19.7 °C 1026 hPa SE 12.9 km/h 19.3 km/h 78 % 0 mm
16:57 23.6 °C 19.7 °C 1025.6 hPa South 3.2 km/h 19.3 km/h 79 % 0 mm
17:02 23.4 °C 19.8 °C 1025.6 hPa ENE 3.2 km/h 19.3 km/h 80 % 0 mm
17:07 23.3 °C 19.9 °C 1026 hPa SE 8 km/h 17.7 km/h 81 % 0 mm
17:12 23.2 °C 20 °C 1026 hPa SSE 3.2 km/h 12.9 km/h 82 % 0 mm
17:17 23.2 °C 20 °C 1026 hPa East 8 km/h 12.9 km/h 82 % 0 mm
17:22 23.1 °C 19.9 °C 1026 hPa SE 3.2 km/h 12.9 km/h 82 % 0 mm
17:27 22.9 °C 19.9 °C 1026 hPa ESE 3.2 km/h 16.1 km/h 83 % 0 mm
17:32 22.7 °C 19.9 °C 1026 hPa East 3.2 km/h 16.1 km/h 84 % 0 mm
17:37 22.6 °C 19.8 °C 1026 hPa ESE 3.2 km/h 16.1 km/h 84 % 0 mm
17:42 22.5 °C 19.9 °C 1026 hPa SE 3.2 km/h 12.9 km/h 85 % 0 mm
17:47 22.4 °C 19.9 °C 1026 hPa ESE 6.4 km/h 9.7 km/h 86 % 0 mm
17:52 22.3 °C 19.8 °C 1026 hPa ESE 3.2 km/h 12.9 km/h 86 % 0 mm
17:57 22.2 °C 19.9 °C 1026 hPa ESE 9.7 km/h 12.9 km/h 87 % 0 mm
18:02 22.1 °C 19.8 °C 1026 hPa SSE 4.8 km/h 16.1 km/h 87 % 0 mm
18:07 22.1 °C 19.8 °C 1026 hPa East 9.7 km/h 16.1 km/h 87 % 0 mm
18:12 22 °C 19.7 °C 1026 hPa SE 6.4 km/h 16.1 km/h 87 % 0 mm
18:17 22 °C 19.7 °C 1026 hPa SE 12.9 km/h 12.9 km/h 87 % 0 mm
18:22 21.9 °C 19.6 °C 1026 hPa ESE 4.8 km/h 16.1 km/h 87 % 0 mm
18:27 21.8 °C 19.7 °C 1025.6 hPa East 9.7 km/h 16.1 km/h 88 % 0 mm
18:32 21.8 °C 19.7 °C 1025.6 hPa ESE 4.8 km/h 16.1 km/h 88 % 0 mm
18:37 21.8 °C 19.7 °C 1026 hPa East 1.6 km/h 16.1 km/h 88 % 0 mm
18:42 21.7 °C 19.8 °C 1026 hPa East 3.2 km/h 16.1 km/h 89 % 0 mm
18:47 21.7 °C 19.8 °C 1026 hPa East 3.2 km/h 11.3 km/h 89 % 0 mm
18:52 21.6 °C 19.9 °C 1026 hPa SE 3.2 km/h 11.3 km/h 90 % 0 mm
18:57 21.6 °C 19.9 °C 1026 hPa ESE 3.2 km/h 9.7 km/h 90 % 0 mm
19:02 21.5 °C 19.8 °C 1026 hPa SSE 1.6 km/h 9.7 km/h 90 % 0 mm
19:07 21.4 °C 19.7 °C 1026.3 hPa ESE 3.2 km/h 8 km/h 90 % 0 mm
19:12 21.3 °C 19.8 °C 1026.3 hPa SE 1.6 km/h 8 km/h 91 % 0 mm
19:17 21.3 °C 19.8 °C 1026.3 hPa ESE 1.6 km/h 9.7 km/h 91 % 0 mm
19:22 21.2 °C 19.7 °C 1026.3 hPa Calm   9.7 km/h 91 % 0 mm
19:27 21.2 °C 19.7 °C 1026.3 hPa ESE 6.4 km/h 9.7 km/h 91 % 0 mm
19:32 21.2 °C 19.7 °C 1026.3 hPa East 4.8 km/h 9.7 km/h 91 % 0 mm
19:37 21.2 °C 19.7 °C 1026.6 hPa East 4.8 km/h 9.7 km/h 91 % 0 mm
19:42 21.1 °C 19.6 °C 1026.6 hPa ESE 3.2 km/h 14.5 km/h 91 % 0 mm
19:47 21.1 °C 19.6 °C 1026.6 hPa ESE 1.6 km/h 14.5 km/h 91 % 0 mm
19:52 21.1 °C 19.7 °C 1026.6 hPa ESE 3.2 km/h 14.5 km/h 92 % 0 mm
19:57 21.1 °C 19.7 °C 1026.6 hPa SE 1.6 km/h 8 km/h 92 % 0 mm
20:02 21 °C 19.6 °C 1026.6 hPa ESE 1.6 km/h 8 km/h 92 % 0 mm
20:07 20.9 °C 19.6 °C 1026.6 hPa ENE 1.6 km/h 8 km/h 92 % 0 mm
20:13 20.9 °C 19.6 °C 1026.6 hPa Calm   4.8 km/h 92 % 0 mm
20:18 20.9 °C 19.6 °C 1026.6 hPa Calm   4.8 km/h 92 % 0 mm
20:23 20.8 °C 19.6 °C 1026.6 hPa SE 1.6 km/h 4.8 km/h 93 % 0 mm
20:28 20.8 °C 19.6 °C 1027 hPa East 3.2 km/h 6.4 km/h 93 % 0 mm
20:33 20.8 °C 19.6 °C 1026.6 hPa SE 3.2 km/h 6.4 km/h 93 % 0 mm
20:38 20.9 °C 19.7 °C 1027 hPa ESE 3.2 km/h 8 km/h 93 % 0 mm
20:43 20.9 °C 19.7 °C 1027 hPa ESE 4.8 km/h 8 km/h 93 % 0 mm
20:48 20.9 °C 19.7 °C 1026.6 hPa ESE 3.2 km/h 8 km/h 93 % 0 mm
20:53 21 °C 19.8 °C 1027 hPa SE 3.2 km/h 8 km/h 93 % 0 mm
20:58 21 °C 19.8 °C 1026.6 hPa East 3.2 km/h 8 km/h 93 % 0 mm
21:03 21 °C 19.8 °C 1027 hPa SE 3.2 km/h 6.4 km/h 93 % 0 mm
21:08 21 °C 19.8 °C 1027 hPa East 4.8 km/h 9.7 km/h 93 % 0 mm
21:13 21.1 °C 20.1 °C 1027 hPa SE 3.2 km/h 9.7 km/h 94 % 0 mm
21:18 21.1 °C 20.1 °C 1027 hPa East 6.4 km/h 11.3 km/h 94 % 0 mm
21:23 21.1 °C 20.1 °C 1027 hPa East 6.4 km/h 12.9 km/h 94 % 0 mm
21:28 21.1 °C 20.1 °C 1027 hPa ESE 4.8 km/h 12.9 km/h 94 % 0 mm
21:33 21.1 °C 20.1 °C 1026.6 hPa Calm   14.5 km/h 94 % 0 mm
21:38 21.1 °C 20.1 °C 1026.6 hPa ESE 1.6 km/h 14.5 km/h 94 % 0 mm
21:43 21 °C 20 °C 1027 hPa East 3.2 km/h 14.5 km/h 94 % 0 mm
21:48 21 °C 20 °C 1027 hPa ESE 1.6 km/h 8 km/h 94 % 0 mm
21:53 21 °C 20 °C 1026.6 hPa South 1.6 km/h 6.4 km/h 94 % 0 mm
21:58 20.9 °C 19.9 °C 1026.6 hPa ESE 3.2 km/h 4.8 km/h 94 % 0 mm
22:04 20.9 °C 19.9 °C 1026.6 hPa SE 1.6 km/h 4.8 km/h 94 % 0 mm
22:09 20.9 °C 19.9 °C 1027 hPa ESE 3.2 km/h 4.8 km/h 94 % 0 mm
22:14 20.9 °C 20.1 °C 1027 hPa SE 6.4 km/h 8 km/h 95 % 0 mm
22:19 20.9 °C 20.1 °C 1027 hPa ESE 3.2 km/h 8 km/h 95 % 0.51 mm
22:24 20.8 °C 20 °C 1027 hPa SE 1.6 km/h 8 km/h 95 % 0.51 mm
22:29 20.8 °C 20 °C 1027 hPa SE 3.2 km/h 8 km/h 95 % 0.51 mm
22:35 20.7 °C 20 °C 1027 hPa SE 3.2 km/h 8 km/h 96 % 0.51 mm
22:40 20.7 °C 20 °C 1027 hPa SE 4.8 km/h 8 km/h 96 % 0.51 mm
22:45 20.7 °C 20 °C 1027 hPa SE 4.8 km/h 9.7 km/h 96 % 0.51 mm
22:50 20.6 °C 19.9 °C 1027 hPa SSW 9.7 km/h 9.7 km/h 96 % 0.51 mm
22:55 20.6 °C 19.9 °C 1027 hPa SSE 8 km/h 11.3 km/h 96 % 0.51 mm
23:00 20.5 °C 19.8 °C 1027 hPa SE 6.4 km/h 14.5 km/h 96 % 0.51 mm
23:05 20.3 °C 19.6 °C 1026.6 hPa SE 3.2 km/h 14.5 km/h 96 % 0.51 mm
23:10 20.2 °C 19.5 °C 1026.6 hPa ESE 3.2 km/h 11.3 km/h 96 % 0.25 mm
23:15 20.2 °C 19.5 °C 1027 hPa SE 4.8 km/h 11.3 km/h 96 % 0 mm
23:20 20.2 °C 19.5 °C 1027 hPa ESE 3.2 km/h 11.3 km/h 96 % 0 mm
23:25 20.2 °C 19.5 °C 1026.6 hPa East 4.8 km/h 11.3 km/h 96 % 0 mm
23:30 20.2 °C 19.5 °C 1026.6 hPa SSE 4.8 km/h 8 km/h 96 % 0 mm
23:35 20.3 °C 19.8 °C 1026.6 hPa SE 4.8 km/h 12.9 km/h 97 % 0 mm
23:40 20.3 °C 19.8 °C 1026.6 hPa SE 4.8 km/h 12.9 km/h 97 % 0 mm
23:45 20.3 °C 19.8 °C 1026.6 hPa SE 3.2 km/h 12.9 km/h 97 % 0 mm
23:50 20.4 °C 19.9 °C 1026.6 hPa SSE 9.7 km/h 12.9 km/h 97 % 0 mm
23:55 20.4 °C 19.9 °C 1026.6 hPa SE 3.2 km/h 12.9 km/h 97 % 0 mm
Spring, Texas: Villages of Bridgestone
Compliments of Weather Underground - 2.75 mb

Script developed by  Jim McMurry - jmcmurry@mwt.net Adapted for the template by  Wim van der Kuil - Leuven-Template.eu

You find our weather info also at:

UK Metoffice

WeatherCloud

Weather Underground

Mid-South Weather Network

AWEKAS

Citizen Weather Observer Program (CWOP)

HAMweather, WeatherForYou, PWS Weather

Equipment we use:

Weather-station
Davis Vantage Vue

Weather-program
Meteohub

Weather-server
Debian 7.9 x86 (Guest)

Provider
DreamHost

Davis Vantage Vue

Meteohub

Debian 7.9 x86 (Guest)

DreamHost